Location: *
(51.4660°N, 0.3360°W)
Time: 12:45:23
(UTC+00:00)

Cosmos 614 Rocket - Pass Details

Date: 19 September 2019
Orbit: 733 x 764 km, 74.1° (Epoch: 18 October)

Event Time Altitude Azimuth Distance (km) Brightness Sun altitude
Rises 19:05:30 0° 336° (NNW) 3,242 7.9 -9.8°
Reaches altitude 10° 19:07:55 10° 339° (NNW) 2,310 7.0 -10.1°
Maximum altitude 19:13:08 65° 62° (ENE) 836 4.0 -10.9°
Drops below altitude 10° 19:18:17 10° 145° (SE) 2,281 6.0 -11.7°
Enters shadow 19:18:31 - 145° (SE) 2,372 6.1 -11.7°
